Regional Weather Roundup
Issued by NWS

Home | Current Version | Previous Version | Graphics & Text | Print | Product List | Glossary On
Versions: 1 2 3 4 5 6 7 8 9 10 11 12 13 14 15 16 17 18 19 20 21 22 23 24 25 26 27 28 29 30 31 32 33 34 35 36 37 38 39 40 41 42 43 44 45 46 47 48 49 50
000
ASUS45 KBOI 230010
RWRID
WEATHER ROUNDUP FOR IDAHO
NATIONAL WEATHER SERVICE BOISE ID
600 PM MDT TUE JUL 22 2014

NOTE: "FAIR" INDICATES FEW OR NO CLOUDS BELOW 12000 FEET
WITH NO SIGNIFICANT WEATHER AND/OR OBSTRUCTIONS TO VISIBILITY

IDZ012-014-230100-
SOUTHWEST IDAHO


CITY           SKY/WX    TMP DP  RH WIND       PRES   REMARKS
BOISE          PTSUNNY   92  44  19 NW12      30.03F
CALDWELL       PTSUNNY   91  50  24 NE5       30.03F
MOUNTAIN HOME  PTSUNNY   92  45  19 W10       30.02F
$$

IDZ016-017-230100-
SOUTHCENTRAL IDAHO


CITY           SKY/WX    TMP DP  RH WIND       PRES   REMARKS
BURLEY         SUNNY     91  49  23 NE12      30.07F
JEROME         SUNNY     93  58  30 N5        30.07F HX  92
TWIN FALLS     SUNNY     95  48  20 N12       30.07F HX  91
$$

IDZ019>023-230100-
SOUTHEAST IDAHO


CITY           SKY/WX    TMP DP  RH WIND       PRES   REMARKS
IDAHO FALLS    MOSUNNY   90  45  21 NW3       30.18F
POCATELLO      MOSUNNY   92  46  20 N9        30.15F
REXBURG        MOSUNNY   86  41  20 W5        30.21F
$$

IDZ006-010-011-018-031-032-230100-
CENTRAL IDAHO MOUNTAINS


CITY           SKY/WX    TMP DP  RH WIND       PRES   REMARKS
MCCALL         CLOUDY    78  42  27 SE7       30.20F
HAILEY         PTSUNNY   82  54  36 S8        30.22F
STANLEY          N/A     78  37  22 CALM      30.31F
SALMON         PTSUNNY   84  45  24 W8        30.05S
CHALLIS        PTSUNNY   88  32  13 SW12G17   30.17S
$$

IDZ002-004-006-007-026-230100-
NORTHERN IDAHO


CITY           SKY/WX    TMP DP  RH WIND       PRES   REMARKS
LEWISTON       PTSUNNY   85  53  33 SW6       30.00F
LOWELL           N/A    100  51  19 E3        29.94F HX  97
COEUR D`ALENE  PTSUNNY   72  59  64 E12       30.12F
MULLAN PASS    CLOUDY    57  53  86 N5        30.30S
$$



USA.gov is the U.S. government's official web portal to all federal, state and local government web resources and services.